Location: Igri�s
(42.2144°N, 0.4320°W)
Time: 16:36:32
(UTC+00:00)

SL-27 R/B - Pass Details

Date: 13 August 2020
Orbit: 419 x 471 km, 74.7° (Epoch: 18 September)

Event Time Altitude Azimuth Distance (km) Brightness Sun altitude
Exits shadow 21:20:08 32° 28° (NNE) 750 3.6 -21.8°
Drops below altitude 10° 21:22:03 10° 22° (NNE) 1,510 5.3 -22.0°
Sets 21:24:06 0° 21° (NNE) 2,378 6.4 -22.3°
